Location: Unspecified
(0.0000°N, 0.0000°E)
Time: 07:06:00
(UTC+00:00)

Envisat - Pass Details

Date: 26 July 2021
Orbit: 764 x 766 km, 98.2° (Epoch: 31 July)

Event Time Altitude Azimuth Distance (km) Brightness Sun altitude
Rises 03:41:17 0° 54° (NE) 3,217 7.2 -34.0°
Reaches altitude 10° 03:46:11 10° 96° (E) 2,296 6.1 -32.8°
Maximum altitude 03:46:45 10° 103° (ESE) 2,285 6.0 -32.7°
Drops below altitude 10° 03:47:19 10° 109° (ESE) 2,298 6.0 -32.6°
Sets 03:52:12 0° 152° (SSE) 3,229 6.3 -31.5°
